User: anonymous   Login
Location: Theydon Bois
(51.6750°N, 0.1050°E)
Time: 04:11:54
(UTC+00:00)
Language:

Cosmos 1538 Rocket - Orbit

View from above orbital plane
View from above orbital plane
View from above satellite
View from above satellite

Ground track
Ground track

The orbit data is extracted from the following two-line orbital elements,

1 14760U 84019B   17350.56058584 -.00000064 +00000-0 -12923-4 0  9990
2 14760 074.0409 147.2920 0028600 320.5926 039.3145 14.35836761769542
Epoch (UTC): 16 December 2017 13:27:14
Eccentricity: 0.0028600
inclination: 74.0409°
perigee height: 752 km
apogee height: 793 km
right ascension of ascending node: 147.2920°
argument of perigee: 320.5926°
revolutions per day: 14.35836761
mean anomaly at epoch: 39.3145°
orbit number at epoch: 76954

The dashed part of the orbit path shows where the satellite is in the earth's shadow,  

DLR